Location: Centerville
(32.8776°N, 96.6203°W)
Time: 04:40:00
(UTC+00:00)

PAYLOAD A - Pass Details

Date: 17 June 2021
Orbit: 692 x 831 km, 98.4° (Epoch: 29 July)

Event Time Altitude Azimuth Distance (km) Brightness Sun altitude
Rises 10:27:58 0° 5° (N) 3,192 7.9 -9.7°
Reaches altitude 10° 10:30:16 10° 0° (N) 2,285 7.0 -9.3°
Maximum altitude 10:35:07 50° 286° (WNW) 987 4.4 -8.5°
Drops below altitude 10° 10:40:08 10° 212° (SSW) 2,358 6.0 -7.6°
Enters shadow 10:41:06 - 210° (SSW) 2,731 6.3 -7.4°
